Powrót do katalogu

STARLINK-34202

AktywnyŁącznośćVLEO
NORAD 64174·PAYLOAD·🇺🇸 United States

Wystrzelony May 28, 2025 z Cape Canaveral Space Force Station

Loading…

Następne Przeloty (najbliższe 24 godziny)

TLE

ŚwieżeSource: CelesTrak SupGP

Epoka: Sep 15, 2026, 02:57 UTC

1 64174C 25113E   26258.12340278  .00014182  00000+0  41889-3 0  2580
2 64174  53.1577 290.7472 0001151  93.3948 319.5043 15.34391528    14

Śledź STARLINK-34202 w czasie rzeczywistym z AllMySat

Download on the App Store